Van, Turkey

4:08 AM +03 on June 28, 2017 (GMT +0300)
Van

Weather History for LTCI - January, 2014

Change the Weather History Date:

Sunday, January 5, 2014

  Actual Average Record
Temperature  
Mean Temperature 21 °F -  
Max Temperature 30 °F 34 °F 62 °F (1998)
Min Temperature 10 °F 17 °F 10 °F (2014)
Degree Days  
Heating Degree Days 44    
Moisture  
Dew Point 15 °F    
Average Humidity 80    
Maximum Humidity 93    
Minimum Humidity 39    
Precipitation  
Precipitation 0.00 in 0.05 in - ()
Sea Level Pressure  
Sea Level Pressure 30.15 in    
Wind  
Wind Speed 6 mph ()    
Max Wind Speed 12 mph    
Max Gust Speed -    
Visibility 4.1 miles    
Events      
Averages and records for this station are not official NWS values.
T = Trace of Precipitation, MM = Missing Value Source: Averaged Metar Reports

Daily Weather History Graph

Daily Weather History Graph

Search for Another Location

Airport or City:

Trip Planner

Search our weather history database for the weather conditions in past years. The results will help you decide how hot, cold, wet, or windy it might be!

Date:

Astronomy

Jan. 05, 2014 Rise Set
Actual Time 6:24 AM EET 3:59 PM EET
Civil Twilight 5:54 AM EET 4:29 PM EET
Nautical Twilight 5:21 AM EET 5:02 PM EET
Astronomical Twilight 4:49 AM EET 5:34 PM EET
Moon 8:56 AM EET (1/5) 8:58 PM EET (1/5)
Length of Visible Light 10h 34m
Length of Day
9h 35m
Waxing Crescent, 21% of the Moon is Illuminated
Jan 5
Waxing Crescent
Jan 8
First Quarter
Jan 16
Full
Jan 24
Last Quarter
Jan 30
New

Hourly Weather History & Observations

Time (EET) Temp. Windchill Dew Point Humidity Pressure Visibility Wind Dir Wind Speed Gust Speed Precip Events Conditions
12:50 AM 19.4 °F 11.5 °F 15.8 °F 86% 30.18 in 5.0 mi ENE 5.8 mph - N/A   Scattered Clouds
1:50 AM 21.2 °F 12.6 °F 15.8 °F 80% 30.18 in 5.0 mi NE 6.9 mph - N/A   Scattered Clouds
2:00 AM 20 °F - 17 °F 83%  in 5 mi NE 6.9 mph - -   Mist
2:50 AM 21.2 °F 10.9 °F 15.8 °F 80% 30.18 in 5.0 mi ENE 9.2 mph - N/A   Scattered Clouds
3:50 AM 21.2 °F 10.9 °F 15.8 °F 80% 30.18 in 5.0 mi NE 9.2 mph - N/A   Scattered Clouds
4:50 AM 19.4 °F 8.6 °F 15.8 °F 86% 30.15 in 5.0 mi ENE 9.2 mph - N/A   Scattered Clouds
5:00 AM 20 °F - 17 °F 84%  in 5 mi ENE 9.2 mph - -   Mist
5:50 AM 17.6 °F 7.3 °F 14.0 °F 86% 30.18 in 4.3 mi NE 8.1 mph - N/A   Scattered Clouds
6:50 AM 17.6 °F 6.4 °F 12.2 °F 79% 30.18 in 5.0 mi ENE 9.2 mph - N/A   Scattered Clouds
7:50 AM 17.6 °F 5.0 °F 12.2 °F 79% 30.18 in 3.7 mi ENE 11.5 mph - N/A   Scattered Clouds
8:00 AM 18 °F - 13 °F 73%  in 4 mi ENE 11.5 mph - -   Mist
8:50 AM 21.2 °F 11.7 °F 14.0 °F 74% 30.18 in 3.7 mi ENE 8.1 mph - N/A   Partly Cloudy
9:50 AM 24.8 °F 16.9 °F 15.8 °F 69% 30.18 in 4.3 mi ENE 6.9 mph - N/A   Partly Cloudy
10:50 AM 30.2 °F - 17.6 °F 60% 30.15 in 3.7 mi Variable 1.2 mph - N/A   Partly Cloudy
11:00 AM 31 °F - 15 °F 39%  in 4 mi ENE 1.2 mph - -   Haze
11:50 AM 28.4 °F 24.6 °F 19.4 °F 69% 30.12 in 3.7 mi NNW 3.5 mph - N/A   Partly Cloudy
12:50 PM 28.4 °F 22.2 °F 21.2 °F 74% 30.12 in 5.0 mi NW 5.8 mph - N/A   Partly Cloudy
1:50 PM 26.6 °F 21.2 °F 21.2 °F 80% 30.12 in 3.7 mi NW 4.6 mph - N/A   Partly Cloudy
2:00 PM 27 °F - 21 °F 70%  in 4 mi NW 4.6 mph - -   Mist
2:50 PM 26.6 °F - 21.2 °F 80% 30.12 in 3.7 mi Variable 2.3 mph - N/A   Partly Cloudy
3:50 PM 23.0 °F - 19.4 °F 86% 30.12 in 2.5 mi Variable 2.3 mph - N/A   Partly Cloudy
4:50 PM 19.4 °F 14.3 °F 15.8 °F 86% 30.15 in 2.5 mi ENE 3.5 mph - N/A   Partly Cloudy
5:00 PM 18 °F - 17 °F 93%  in 2 mi ENE 3.5 mph - -   Mist
5:50 PM 17.6 °F - 14.0 °F 86% 30.15 in 3.7 mi ESE 1.2 mph - N/A   Partly Cloudy
6:50 PM 14.0 °F 6.5 °F 12.2 °F 93% 30.15 in 3.7 mi ENE 4.6 mph - N/A   Partly Cloudy
7:50 PM 14.0 °F 6.5 °F 8.6 °F 79% 30.15 in 3.7 mi ENE 4.6 mph - N/A   Partly Cloudy
8:00 PM 13 °F - 11 °F 88%  in 4 mi ENE 4.6 mph - -   Mist
8:50 PM 14.0 °F 8.2 °F 10.4 °F 86% 30.15 in 4.3 mi ENE 3.5 mph - N/A   Partly Cloudy
9:50 PM 12.2 °F - 10.4 °F 92% 30.15 in 3.7 mi East 2.3 mph - N/A   Partly Cloudy
10:50 PM 12.2 °F 4.3 °F 8.6 °F 85% 30.15 in 4.3 mi ENE 4.6 mph - N/A   Partly Cloudy
11:00 PM 12 °F - 10 °F 89%  in 4 mi ENE 4.6 mph - -   Mist
11:50 PM 10.4 °F 4.0 °F 6.8 °F 85% 30.15 in 4.3 mi ENE 3.5 mph - N/A   Partly Cloudy